WAT187 SEGU-SEQM

Flight info

Callsign WAT187
Flight time 0h 29m
Altitude 22000
Route USOGI1 PAMIS G675 QIT
Aircraft A320/M-SDE3FGHIRWY/LB1

Departure

Time 2026-04-25 00:22
Airport José Joaquín de Olmedo International Airport (SEGU)

Arrival

Time 2026-04-25 00:51
Airport Mariscal Sucre International Airport (SEQM)
Time Latitude Longitude Altitude Speed Heading
2026-04-24 23:51 -2.14829 -79.88303 22 ft 0 kts 300°
2026-04-25 00:14 -2.14830 -79.88303 3 ft 1 kts 300°
2026-04-25 00:14 -2.14838 -79.88289 24 ft 2 kts 300°
2026-04-25 00:14 -2.14846 -79.88274 25 ft 2 kts 300°
2026-04-25 00:14 -2.14856 -79.88259 25 ft 3 kts 326°
2026-04-25 00:15 -2.14872 -79.88253 25 ft 3 kts
2026-04-25 00:15 -2.14889 -79.88256 23 ft 1 kts 18°
2026-04-25 00:17 -2.14864 -79.88245 24 ft 9 kts 26°
2026-04-25 00:17 -2.14803 -79.88208 24 ft 10 kts 31°
2026-04-25 00:18 -2.14786 -79.88159 22 ft 7 kts 115°
2026-04-25 00:18 -2.14817 -79.88106 22 ft 11 kts 121°
2026-04-25 00:18 -2.14830 -79.88034 24 ft 10 kts 52°
2026-04-25 00:18 -2.14774 -79.88000 23 ft 9 kts 29°
2026-04-25 00:19 -2.14724 -79.87972 24 ft 8 kts 29°
2026-04-25 00:19 -2.14682 -79.87945 22 ft 7 kts 40°
2026-04-25 00:19 -2.14659 -79.87911 22 ft 5 kts 65°
2026-04-25 00:19 -2.14649 -79.87881 22 ft 4 kts 73°
2026-04-25 00:20 -2.14648 -79.87876 22 ft 1 kts 73°
2026-04-25 00:20 -2.14644 -79.87863 24 ft 5 kts 73°
2026-04-25 00:20 -2.14635 -79.87798 22 ft 12 kts 96°
2026-04-25 00:20 -2.14697 -79.87767 23 ft 14 kts 211°
2026-04-25 00:21 -2.14729 -79.87786 21 ft 0 kts 210°
2026-04-25 00:21 -2.14911 -79.87889 23 ft 67 kts 210°
2026-04-25 00:21 -2.15511 -79.88232 21 ft 129 kts 210°
2026-04-25 00:21 -2.16374 -79.88726 353 ft 147 kts 210°
2026-04-25 00:22 -2.17309 -79.89172 823 ft 152 kts 208°
2026-04-25 00:22 -2.18250 -79.89688 1381 ft 155 kts 211°
2026-04-25 00:22 -2.19254 -79.90149 1894 ft 163 kts 187°
2026-04-25 00:22 -2.20399 -79.89930 2315 ft 179 kts 150°
2026-04-25 00:23 -2.21244 -79.88980 2754 ft 193 kts 111°
2026-04-25 00:23 -2.21316 -79.87629 3189 ft 204 kts 71°
2026-04-25 00:23 -2.20479 -79.86460 3608 ft 216 kts 42°
2026-04-25 00:23 -2.19311 -79.85422 3948 ft 234 kts 41°
2026-04-25 00:24 -2.18030 -79.84304 4375 ft 253 kts 41°
2026-04-25 00:24 -2.16669 -79.83108 4924 ft 267 kts 41°
2026-04-25 00:24 -2.15243 -79.81846 5677 ft 272 kts 41°
2026-04-25 00:24 -2.13837 -79.80595 6436 ft 276 kts 41°
2026-04-25 00:25 -2.12377 -79.79297 7174 ft 280 kts 41°
2026-04-25 00:25 -2.10910 -79.77992 7896 ft 284 kts 41°
2026-04-25 00:25 -2.09426 -79.76669 8618 ft 288 kts 41°
2026-04-25 00:25 -2.07921 -79.75322 9335 ft 292 kts 42°
2026-04-25 00:26 -2.06395 -79.73953 10012 ft 297 kts 42°
2026-04-25 00:26 -2.04809 -79.72567 10424 ft 311 kts 37°
2026-04-25 00:26 -2.02940 -79.71378 10741 ft 327 kts 29°
2026-04-25 00:26 -2.00902 -79.70238 11035 ft 344 kts 29°
2026-04-25 00:27 -1.98769 -79.69035 11307 ft 359 kts 29°
2026-04-25 00:27 -1.96564 -79.67785 11780 ft 367 kts 29°
2026-04-25 00:27 -1.94337 -79.66519 12383 ft 371 kts 29°
2026-04-25 00:27 -1.92082 -79.65234 12986 ft 374 kts 29°
2026-04-25 00:28 -1.89816 -79.63944 13574 ft 378 kts 29°
2026-04-25 00:28 -1.87512 -79.62634 14113 ft 381 kts 29°
2026-04-25 00:28 -1.85200 -79.61319 14628 ft 384 kts 29°
2026-04-25 00:28 -1.82867 -79.59994 15154 ft 387 kts 29°
2026-04-25 00:29 -1.80520 -79.58663 15673 ft 389 kts 29°
2026-04-25 00:29 -1.78158 -79.57323 16182 ft 392 kts 29°
2026-04-25 00:29 -1.75776 -79.55971 16690 ft 395 kts 29°
2026-04-25 00:29 -1.73378 -79.54611 17204 ft 398 kts 29°
2026-04-25 00:30 -1.70967 -79.53241 17705 ft 400 kts 29°
2026-04-25 00:30 -1.68535 -79.51860 18209 ft 403 kts 29°
2026-04-25 00:30 -1.66088 -79.50473 18638 ft 406 kts 29°
2026-04-25 00:30 -1.63626 -79.49077 19093 ft 408 kts 29°
2026-04-25 00:31 -1.61149 -79.47672 19553 ft 410 kts 29°
2026-04-25 00:31 -1.58666 -79.46261 19996 ft 412 kts 29°
2026-04-25 00:31 -1.56175 -79.44831 20453 ft 414 kts 30°
2026-04-25 00:31 -1.53651 -79.43364 20898 ft 416 kts 30°
2026-04-25 00:32 -1.51147 -79.41901 21328 ft 418 kts 30°
2026-04-25 00:32 -1.48631 -79.40431 21750 ft 420 kts 30°
2026-04-25 00:32 -1.46136 -79.38976 22160 ft 422 kts 30°
2026-04-25 00:32 -1.44421 -79.37977 22432 ft 423 kts 30°
2026-04-25 00:33 -1.41876 -79.36496 22836 ft 425 kts 30°
2026-04-25 00:33 -1.39316 -79.35007 23032 ft 426 kts 30°
2026-04-25 00:33 -1.36723 -79.33504 23075 ft 436 kts 30°
2026-04-25 00:33 -1.34090 -79.31975 23084 ft 439 kts 30°
2026-04-25 00:34 -1.31446 -79.30437 23090 ft 439 kts 30°
2026-04-25 00:34 -1.28813 -79.28907 23105 ft 439 kts 30°
2026-04-25 00:34 -1.26174 -79.27375 23114 ft 439 kts 30°
2026-04-25 00:34 -1.23538 -79.25845 23123 ft 438 kts 30°
2026-04-25 00:35 -1.20894 -79.24311 23136 ft 439 kts 30°
2026-04-25 00:35 -1.18252 -79.22781 23146 ft 439 kts 30°
2026-04-25 00:35 -1.15617 -79.21255 23159 ft 439 kts 30°
2026-04-25 00:35 -1.12973 -79.19721 23173 ft 439 kts 30°
2026-04-25 00:36 -1.10337 -79.18189 23183 ft 439 kts 30°
2026-04-25 00:36 -1.07698 -79.16654 23191 ft 439 kts 30°
2026-04-25 00:36 -1.05062 -79.15122 23201 ft 439 kts 30°
2026-04-25 00:36 -1.02425 -79.13592 23207 ft 439 kts 30°
2026-04-25 00:37 -0.99782 -79.12062 23219 ft 438 kts 30°
2026-04-25 00:37 -0.97142 -79.10536 23221 ft 438 kts 30°
2026-04-25 00:37 -0.94470 -79.08990 23232 ft 438 kts 30°
2026-04-25 00:37 -0.91831 -79.07458 23236 ft 439 kts 30°
2026-04-25 00:38 -0.89198 -79.05924 23240 ft 438 kts 30°
2026-04-25 00:38 -0.86567 -79.04389 23250 ft 438 kts 31°
2026-04-25 00:38 -0.83932 -79.02854 23255 ft 438 kts 31°
2026-04-25 00:38 -0.81332 -79.01311 23136 ft 429 kts 34°
2026-04-25 00:39 -0.78984 -78.99481 22929 ft 428 kts 43°
2026-04-25 00:39 -0.76820 -78.97446 22745 ft 427 kts 43°
2026-04-25 00:39 -0.74656 -78.95414 22547 ft 426 kts 43°
2026-04-25 00:39 -0.72497 -78.93397 22355 ft 425 kts 43°
2026-04-25 00:40 -0.70334 -78.91381 22163 ft 424 kts 43°
2026-04-25 00:40 -0.68178 -78.89372 21978 ft 423 kts 43°
2026-04-25 00:40 -0.66037 -78.87357 21787 ft 422 kts 43°
2026-04-25 00:40 -0.64000 -78.85254 21599 ft 421 kts 52°
2026-04-25 00:41 -0.62541 -78.82724 21418 ft 421 kts 68°
2026-04-25 00:41 -0.61565 -78.79968 21230 ft 420 kts 70°
2026-04-25 00:41 -0.60622 -78.77210 21054 ft 420 kts 71°
2026-04-25 00:41 -0.59687 -78.74451 20870 ft 419 kts 71°
2026-04-25 00:42 -0.58754 -78.71695 20686 ft 418 kts 71°
2026-04-25 00:42 -0.57821 -78.68950 20505 ft 418 kts 70°
2026-04-25 00:42 -0.56882 -78.66203 20318 ft 417 kts 70°
2026-04-25 00:42 -0.55959 -78.63502 20135 ft 405 kts 70°
2026-04-25 00:43 -0.55067 -78.60883 19951 ft 393 kts 71°
2026-04-25 00:43 -0.54199 -78.58337 19771 ft 381 kts 71°
2026-04-25 00:43 -0.53357 -78.55868 19593 ft 370 kts 70°
2026-04-25 00:43 -0.52537 -78.53466 19414 ft 360 kts 70°
2026-04-25 00:44 -0.51737 -78.51129 19238 ft 350 kts 70°
2026-04-25 00:44 -0.50961 -78.48859 19052 ft 341 kts 70°
2026-04-25 00:44 -0.50204 -78.46642 18857 ft 333 kts 70°
2026-04-25 00:44 -0.49469 -78.44491 18534 ft 321 kts 70°
2026-04-25 00:45 -0.48721 -78.42454 18351 ft 305 kts 61°
2026-04-25 00:45 -0.47443 -78.40845 18140 ft 294 kts 35°
2026-04-25 00:45 -0.45603 -78.39929 17676 ft 293 kts 18°
2026-04-25 00:45 -0.43696 -78.39253 17227 ft 295 kts 19°
2026-04-25 00:46 -0.41737 -78.38556 16787 ft 295 kts 19°
2026-04-25 00:46 -0.39800 -78.37863 16346 ft 294 kts 19°
2026-04-25 00:46 -0.36040 -78.36580 15484 ft 278 kts 17°
2026-04-25 00:47 -0.34221 -78.35988 15057 ft 272 kts 17°
2026-04-25 00:47 -0.32437 -78.35410 14651 ft 264 kts 17°
2026-04-25 00:47 -0.30760 -78.34871 14227 ft 247 kts 14°
2026-04-25 00:47 -0.29077 -78.34713 13469 ft 241 kts 356°
2026-04-25 00:48 -0.27409 -78.34797 12713 ft 239 kts 356°
2026-04-25 00:48 -0.25760 -78.34873 11991 ft 236 kts 357°
2026-04-25 00:48 -0.24134 -78.34945 11297 ft 231 kts 357°
2026-04-25 00:48 -0.22577 -78.35012 10722 ft 217 kts 358°
2026-04-25 00:49 -0.21135 -78.35074 10247 ft 198 kts 358°
2026-04-25 00:49 -0.19803 -78.35172 9822 ft 187 kts 354°
2026-04-25 00:49 -0.18540 -78.35277 9449 ft 181 kts 359°
2026-04-25 00:49 -0.17282 -78.35288 9000 ft 178 kts
2026-04-25 00:50 -0.16075 -78.35290 8579 ft 170 kts 358°
2026-04-25 00:50 -0.14908 -78.35342 8175 ft 164 kts 358°
2026-04-25 00:50 -0.13791 -78.35391 7903 ft 156 kts 357°
2026-04-25 00:50 -0.12794 -78.35441 7868 ft 129 kts 358°
2026-04-25 00:51 -0.12088 -78.35457 7834 ft 62 kts 356°
2026-04-25 00:51 -0.11750 -78.35503 7827 ft 44 kts 328°
2026-04-25 00:51 -0.11625 -78.35628 7822 ft 15 kts 225°
2026-04-25 00:51 -0.11730 -78.35639 7825 ft 17 kts 185°
2026-04-25 00:52 -0.11857 -78.35633 7827 ft 20 kts 176°
2026-04-25 00:52 -0.12003 -78.35628 7831 ft 22 kts 181°
2026-04-25 00:52 -0.12161 -78.35622 7832 ft 23 kts 176°
2026-04-25 00:52 -0.12325 -78.35619 7843 ft 20 kts 189°
2026-04-25 00:53 -0.12362 -78.35723 7836 ft 19 kts 274°
2026-04-25 00:53 -0.12376 -78.35866 7834 ft 17 kts 268°
2026-04-25 00:53 -0.12379 -78.35933 7841 ft 0 kts 269°